Location: *
(24.1434°N, 56.8729°E)
Time: 05:20:05
(UTC+00:00)

SeaSat 1 - Pass Details

Date: 09 April 2020
Orbit: 745 x 746 km, 108.0° (Epoch: 05 June)

Event Time Altitude Azimuth Distance (km) Brightness Sun altitude
Rises 14:58:42 0° 14° (NNE) 3,185 5.7 -6.8°
Reaches altitude 10° 15:01:01 10° 9° (N) 2,260 5.0 -7.4°
Maximum altitude 15:05:44 48° 296° (WNW) 967 3.6 -8.4°
Drops below altitude 10° 15:10:26 10° 222° (SW) 2,253 5.3 -9.5°
Sets 15:12:45 0° 217° (SW) 3,174 6.0 -10.0°
